Probability
0 0 0 0 0 0 0 0 0 0 0 0 0 0 0 0 0 0 0 6 10 32 32 35 35 39 39 39 45 42 42 42 42 39 32 32 29 29 26 23 26 23 26 10 13 16 13 10 6
0 0 0 0 0 0 0 0 0 0 0 0 0 0 0 0 0 0 6 10 16 26 32 32 39 39 39 35 35 39 39 39 39 32 29 29 26 23 23 23 19 16 16 13 10 6 10 10 6
0 0 0 0 0 0 0 0 0 0 0 0 0 0 0 0 0 0 3 10 13 19 29 32 35 32 35 35 35 32 35 35 32 29 29 26 26 23 23 23 23 16 19 13 13 10 3 6 6
0 0 0 0 0 0 0 0 0 0 0 0 0 0 0 0 0 0 6 13 19 19 19 26 29 32 32 32 32 29 26 26 26 29 26 26 23 19 19 19 19 16 16 13 6 10 3 3 3
0 0 0 0 0 0 0 0 0 0 0 0 0 0 0 0 0 3 16 10 16 19 19 19 23 23 23 23 23 23 23 23 23 26 26 26 19 16 16 16 19 16 13 6 3 6 6 6 3
0 0 0 0 0 0 0 0 0 0 0 0 0 0 0 0 3 6 6 10 16 16 16 19 23 23 23 23 23 19 19 19 23 23 23 23 19 19 16 16 19 19 13 6 6 3 3 3 6
0 0 0 0 0 0 0 0 0 0 0 0 0 0 0 0 3 3 0 6 16 16 16 16 16 16 19 19 19 19 19 19 19 19 19 16 16 16 10 10 13 13 10 10 6 6 3 3 3
0 0 0 0 0 0 0 0 0 0 0 0 0 0 0 0 0 0 3 6 13 13 16 16 16 16 13 16 19 19 19 19 19 16 13 10 10 13 10 10 10 10 10 10 10 6 6 3 3
0 0 0 0 0 0 0 0 0 0 0 0 0 0 0 0 0 0 3 10 10 13 10 10 13 10 6 10 16 13 13 13 13 10 6 6 3 3 3 3 6 6 6 10 10 6 6 0 0
0 0 0 0 0 0 0 0 0 0 0 0 0 0 0 0 3 6 6 6 10 10 10 10 6 6 3 6 6 6 6 10 6 6 3 3 0 0 0 0 0 3 3 3 3 6 0 0 0
0 0 0 0 0 0 0 0 0 0 0 0 0 0 0 0 3 3 6 6 6 6 6 6 6 6 3 3 6 6 0 0 3 3 3 3 0 0 0 0 0 0 0 0 0 0 0 0 0
0 0 0 0 0 0 0 0 0 0 0 0 0 0 0 0 3 3 6 6 3 3 3 3 3 3 3 6 3 3 0 0 0 0 3 3 0 0 0 0 0 0 0 0 0 0 0 0 0
0 0 0 0 0 0 0 0 0 0 0 0 0 0 0 0 0 3 3 3 3 3 3 3 3 3 3 3 3 3 0 0 0 0 0 3 0 0 0 0 0 0 0 0 0 0 0 0 0
0 0 0 0 0 0 0 0 0 0 0 0 0 0 0 0 0 3 3 3 3 3 3 0 3 3 3 3 3 3 0 0 0 0 0 0 0 0 0 0 0 0 0 0 0 0 0 0 0
0 0 0 0 0 0 0 0 0 0 0 0 0 0 0 0 0 0 3 3 3 6 3 0 3 3 3 0 0 0 0 0 0 0 0 0 0 0 0 0 0 0 0 0 0 0 0 0 0
0 0 0 0 0 0 0 0 0 0 0 0 0 0 0 0 0 0 0 0 0 6 3 3 3 3 3 0 0 0 0 0 0 0 0 0 0 0 0 0 0 0 0 0 0 0 0 0 0
0 0 0 0 0 0 0 0 0 0 0 0 0 0 0 0 0 0 0 0 0 0 3 0 0 3 3 0 0 0 0 0 0 0 0 0 0 0 0 0 0 0 0 0 0 0 0 0 0
0 0 0 0 0 0 0 0 0 0 0 0 0 0 0 0 0 0 0 0 0 0 0 3 0 0 0 0 0 0 0 0 0 0 0 0 0 0 0 0 0 0 0 0 0 0 0 0 0
0 0 0 0 0 0 0 0 0 0 0 0 0 0 0 0 0 0 0 0 0 0 0 3 0 0 0 0 0 0 0 0 0 0 0 0 0 0 0 0 0 0 0 0 0 0 0 0 0
0 0 0 0 0 0 0 0 0 0 0 0 0 0 0 0 0 0 0 0 0 0 0 0 0 0 0 0 0 0 0 0 0 0 0 0 0 0 0 0 0 0 0 0 0 0 0 0 0
0 0 0 0 0 0 0 0 0 0 0 0 0 0 0 0 0 0 0 0 0 0 0 0 0 0 0 0 0 0 0 0 0 0 0 0 0 0 0 0 0 0 0 0 0 0 0 0 0
0 0 0 0 0 0 0 0 0 0 0 0 0 0 0 0 0 0 0 0 0 0 0 0 0 0 0 0 0 0 0 0 0 0 0 0 0 0 0 0 0 0 0 0 0 0 0 0 0
0 0 0 0 0 0 0 0 0 0 0 0 0 0 0 0 0 0 0 0 0 0 0 0 0 0 0 0 0 0 0 0 0 0 0 0 0 0 0 0 0 0 0 0 0 0 0 0 0
0 0 0 0 0 0 0 0 0 0 0 0 0 0 0 0 0 0 0 0 0 0 0 0 0 0 0 0 0 0 0 0 0 0 0 0 0 0 0 0 0 0 0 0 0 0 0 0 0
0 0 0 0 0 0 0 0 0 0 0 0 0 0 0 0 0 0 0 0 0 0 0 0 0 0 0 0 0 0 0 0 0 0 0 0 0 0 0 0 0 0 0 0 0 0 0 0 0
0 0 0 0 0 0 0 0 0 0 0 0 0 0 0 0 0 0 0 0 0 0 0 0 0 0 0 0 0 0 0 0 0 0 0 0 0 0 0 0 0 0 0 0 0 0 0 0 0
0 0 0 0 0 0 0 0 0 0 0 0 0 0 0 0 0 0 0 0 0 0 0 0 0 0 0 0 0 0 0 0 0 0 0 0 0 0 0 0 0 0 0 0 0 0 0 0 0
0 0 0 0 0 0 0 0 0 0 0 0 0 0 0 0 0 0 0 0 0 0 0 0 0 0 0 0 0 0 0 0 0 0 0 0 0 0 0 0 0 0 0 0 0 0 0 0 0
0 0 0 0 0 0 0 0 0 0 0 0 0 0 0 0 0 0 0 0 0 0 0 0 0 0 0 0 0 0 0 0 0 0 0 0 0 0 0 0 0 0 0 0 0 0 0 0 0
0 0 0 0 0 0 0 0 0 0 0 0 0 0 0 0 0 0 0 0 0 0 0 0 0 0 0 0 0 0 0 0 0 0 0 0 0 0 0 0 0 0 0 0 0 0 0 0 0
Height
5815 5818 5821 5823 5826 5828 5831 5834 5836 5837 5839 5841 5843 5844 5846 5848 5851 5855 5855 5854 5855 5856 5857 5858 5859 5860 5862 5862 5863 5864 5865 5865 5866 5867 5867 5868 5868 5868 5868 5868 5868 5868 5868 5868 5868 5868 5867 5867 5867
5810 5813 5816 5818 5820 5823 5827 5829 5831 5833 5835 5836 5838 5840 5842 5844 5847 5849 5850 5851 5852 5853 5854 5855 5856 5857 5858 5859 5860 5861 5862 5862 5863 5864 5864 5865 5865 5866 5866 5866 5866 5866 5866 5865 5865 5865 5864 5864 5864
5804 5807 5810 5812 5814 5818 5822 5824 5826 5827 5829 5831 5834 5836 5838 5840 5842 5845 5846 5847 5848 5850 5851 5852 5853 5854 5855 5856 5857 5858 5859 5859 5860 5861 5862 5862 5862 5863 5863 5863 5863 5863 5862 5862 5862 5862 5861 5861 5861
5798 5801 5804 5807 5810 5814 5816 5819 5820 5822 5824 5826 5829 5831 5833 5836 5838 5840 5842 5843 5844 5846 5847 5848 5849 5850 5852 5853 5854 5855 5855 5856 5857 5858 5858 5859 5859 5859 5859 5859 5859 5859 5859 5859 5858 5858 5858 5857 5857
5791 5794 5797 5801 5805 5808 5810 5812 5815 5817 5819 5821 5824 5826 5828 5831 5833 5836 5837 5839 5840 5842 5843 5844 5845 5847 5848 5849 5850 5851 5852 5853 5853 5854 5855 5855 5855 5856 5856 5856 5856 5856 5855 5855 5855 5854 5854 5853 5853
5785 5788 5792 5796 5799 5802 5804 5806 5809 5812 5814 5816 5819 5821 5823 5826 5828 5831 5832 5834 5836 5837 5839 5840 5841 5843 5844 5845 5846 5847 5848 5849 5849 5850 5851 5851 5851 5852 5852 5852 5852 5852 5851 5851 5850 5850 5849 5849 5848
5779 5782 5785 5789 5792 5795 5798 5800 5803 5806 5808 5811 5814 5816 5818 5821 5824 5826 5828 5829 5831 5832 5834 5836 5837 5838 5839 5841 5842 5842 5843 5844 5845 5846 5846 5847 5847 5847 5847 5847 5847 5847 5847 5847 5846 5845 5845 5844 5843
5770 5775 5778 5782 5786 5789 5792 5794 5797 5800 5802 5806 5809 5811 5813 5816 5818 5820 5823 5825 5826 5828 5829 5831 5832 5834 5835 5836 5837 5838 5839 5840 5840 5841 5842 5842 5843 5843 5843 5843 5843 5842 5842 5842 5841 5840 5840 5839 5838
5762 5767 5771 5776 5779 5783 5785 5787 5790 5793 5796 5800 5803 5806 5808 5810 5812 5815 5818 5819 5821 5823 5824 5826 5828 5829 5830 5831 5833 5833 5834 5835 5836 5836 5837 5837 5837 5838 5838 5837 5837 5837 5837 5836 5836 5835 5834 5833 5832
5754 5759 5766 5769 5772 5775 5778 5780 5783 5787 5790 5794 5797 5800 5802 5804 5807 5810 5812 5814 5816 5818 5819 5821 5823 5824 5825 5827 5828 5829 5829 5830 5831 5831 5832 5832 5832 5832 5832 5832 5832 5832 5831 5831 5830 5830 5829 5828 5827
5747 5753 5758 5760 5764 5767 5770 5773 5776 5780 5784 5787 5791 5794 5796 5799 5801 5804 5806 5808 5810 5812 5814 5816 5817 5819 5820 5821 5822 5823 5824 5825 5825 5826 5826 5827 5827 5827 5827 5827 5826 5826 5826 5825 5825 5824 5823 5822 5821
5739 5745 5748 5752 5755 5759 5762 5765 5769 5773 5777 5780 5784 5787 5790 5793 5795 5798 5800 5803 5805 5806 5808 5810 5812 5813 5814 5816 5817 5818 5818 5819 5820 5820 5820 5821 5821 5821 5821 5821 5821 5821 5820 5820 5819 5818 5817 5816 5815
5731 5736 5739 5743 5746 5750 5754 5758 5761 5766 5770 5773 5776 5780 5783 5786 5789 5791 5794 5796 5798 5800 5802 5804 5805 5807 5808 5810 5811 5812 5812 5813 5814 5814 5815 5815 5815 5815 5815 5815 5815 5814 5814 5813 5813 5812 5811 5809 5808
5723 5727 5730 5734 5738 5742 5746 5750 5754 5760 5762 5765 5769 5773 5776 5779 5782 5785 5788 5790 5792 5794 5796 5798 5799 5800 5802 5803 5804 5805 5806 5807 5808 5808 5809 5809 5809 5809 5809 5809 5808 5808 5808 5807 5806 5805 5804 5802 5801
5712 5717 5721 5726 5730 5734 5737 5742 5748 5752 5754 5758 5762 5765 5769 5772 5775 5778 5781 5783 5785 5787 5789 5791 5792 5794 5795 5797 5798 5799 5800 5801 5801 5802 5802 5802 5802 5802 5802 5802 5802 5801 5800 5800 5799 5798 5796 5795 5793
5702 5707 5712 5719 5722 5726 5730 5736 5741 5743 5746 5750 5754 5758 5762 5765 5768 5771 5774 5776 5778 5780 5782 5784 5786 5788 5789 5790 5792 5793 5793 5794 5795 5795 5795 5796 5795 5795 5795 5795 5794 5794 5793 5792 5791 5790 5789 5787 5785
5692 5698 5705 5711 5714 5717 5721 5728 5733 5734 5738 5743 5747 5750 5754 5758 5761 5764 5766 5769 5771 5773 5775 5777 5779 5781 5782 5783 5785 5786 5786 5787 5788 5788 5788 5788 5788 5788 5788 5788 5787 5786 5785 5784 5783 5782 5780 5779 5777
5686 5691 5696 5701 5705 5708 5712 5719 5723 5726 5730 5735 5739 5742 5746 5750 5754 5756 5759 5761 5764 5766 5768 5770 5772 5773 5775 5776 5777 5779 5779 5780 5780 5781 5781 5781 5781 5780 5780 5780 5779 5778 5777 5776 5775 5773 5771 5769 5767
5676 5681 5686 5691 5695 5698 5703 5708 5714 5717 5721 5726 5730 5734 5738 5742 5745 5748 5751 5754 5756 5758 5760 5762 5764 5766 5768 5769 5770 5771 5772 5772 5773 5773 5773 5773 5773 5773 5772 5772 5771 5770 5769 5767 5766 5764 5762 5759 5757
5664 5669 5675 5681 5684 5688 5693 5698 5704 5708 5713 5717 5722 5726 5730 5733 5737 5740 5743 5746 5748 5751 5753 5755 5757 5758 5760 5762 5763 5763 5764 5765 5765 5765 5765 5765 5765 5765 5764 5763 5762 5761 5760 5758 5756 5754 5752 5750 5747
5654 5660 5666 5671 5674 5677 5682 5687 5694 5700 5704 5708 5713 5717 5721 5725 5729 5731 5735 5738 5740 5743 5745 5747 5749 5751 5752 5754 5755 5755 5756 5757 5757 5757 5757 5757 5757 5756 5755 5754 5753 5752 5751 5749 5747 5744 5742 5740 5737
5645 5651 5655 5659 5663 5667 5672 5676 5686 5691 5695 5699 5704 5708 5712 5716 5720 5723 5726 5729 5732 5734 5736 5738 5740 5742 5744 5745 5746 5747 5748 5749 5750 5749 5749 5749 5748 5748 5747 5745 5744 5743 5741 5739 5737 5734 5732 5729 5726
5635 5641 5645 5648 5652 5656 5661 5665 5675 5681 5686 5691 5695 5700 5703 5707 5711 5714 5717 5720 5723 5725 5728 5730 5732 5734 5735 5737 5738 5739 5740 5741 5741 5741 5741 5740 5740 5739 5738 5737 5735 5734 5732 5729 5727 5724 5721 5718 5715
5624 5630 5634 5637 5640 5644 5653 5656 5663 5672 5678 5683 5687 5690 5694 5698 5702 5705 5708 5711 5714 5716 5719 5721 5723 5725 5726 5728 5729 5730 5731 5732 5732 5732 5732 5732 5731 5730 5729 5727 5726 5724 5721 5719 5716 5713 5710 5706 5703
5613 5619 5623 5625 5628 5635 5644 5646 5654 5663 5669 5673 5677 5681 5685 5689 5692 5696 5699 5702 5705 5708 5710 5712 5714 5716 5717 5719 5720 5721 5722 5722 5723 5723 5723 5722 5722 5720 5719 5717 5715 5713 5711 5708 5705 5702 5698 5695 5691
5604 5609 5614 5618 5622 5628 5632 5636 5646 5653 5658 5663 5667 5671 5675 5679 5683 5687 5690 5693 5696 5699 5701 5703 5705 5706 5708 5709 5710 5711 5712 5712 5713 5713 5713 5712 5711 5710 5709 5707 5705 5702 5700 5697 5694 5690 5687 5683 5679
5593 5598 5605 5609 5613 5618 5622 5629 5637 5642 5648 5653 5658 5662 5666 5670 5674 5677 5681 5684 5687 5689 5691 5693 5695 5696 5697 5699 5700 5701 5701 5702 5703 5703 5703 5702 5701 5699 5698 5696 5694 5691 5688 5685 5682 5679 5675 5671 5666
5584 5590 5595 5598 5603 5607 5613 5620 5627 5633 5638 5644 5649 5653 5657 5661 5665 5668 5671 5674 5677 5679 5681 5683 5684 5685 5686 5687 5689 5689 5690 5691 5692 5692 5692 5691 5690 5689 5687 5685 5682 5679 5677 5673 5670 5667 5663 5659 5654
5575 5581 5585 5590 5594 5600 5605 5614 5619 5624 5629 5634 5639 5643 5647 5651 5655 5658 5662 5665 5667 5669 5671 5673 5674 5675 5676 5677 5678 5679 5680 5680 5681 5681 5681 5680 5679 5677 5675 5673 5671 5668 5665 5662 5658 5654 5650 5646 5641
5566 5571 5576 5581 5586 5591 5597 5607 5610 5615 5620 5624 5629 5633 5637 5641 5645 5649 5652 5655 5657 5660 5662 5663 5664 5665 5666 5667 5668 5669 5669 5669 5670 5670 5669 5669 5668 5666 5664 5662 5659 5656 5653 5649 5646 5642 5638 5633 5629
Wind_Speed
33 32 32 32 32 32 30 27 27 27 27 26 25 25 24 23 21 19 17 17 17 17 17 18 17 17 17 17 17 16 16 16 16 16 16 16 16 16 16 15 15 15 15 15 15 15 15 15 15
34 34 33 33 33 32 29 28 28 28 28 28 27 26 26 25 22 20 18 18 18 18 18 18 18 18 18 18 18 18 18 18 18 18 18 18 18 17 17 17 17 17 17 17 17 17 17 17 18
36 35 35 34 34 32 30 29 29 29 29 29 28 28 27 26 24 22 21 20 20 20 19 19 19 19 19 19 19 19 19 19 19 19 19 19 19 19 19 19 18 19 19 19 19 20 20 20 20
36 36 36 35 33 31 30 30 31 30 30 30 29 28 28 27 25 24 23 22 22 21 21 21 20 20 20 20 20 20 20 20 20 20 20 20 20 20 20 20 20 20 20 21 21 21 21 22 22
38 37 37 35 33 32 31 32 32 31 31 31 30 29 28 28 26 25 24 24 23 23 23 22 22 22 22 21 21 21 21 21 21 21 21 21 21 22 22 22 22 22 22 22 22 22 23 23 23
39 38 37 34 33 33 33 33 33 32 32 31 31 30 29 28 27 26 26 25 25 25 24 24 23 23 23 23 23 23 23 23 23 23 22 22 22 23 23 23 23 23 23 24 24 24 25 25 25
40 39 37 35 34 34 33 34 33 32 32 32 31 30 29 29 28 27 27 26 26 25 25 24 24 24 24 24 24 24 24 24 24 23 23 24 24 24 24 25 25 25 25 25 25 26 26 26 27
41 40 39 37 35 34 34 34 33 33 33 32 31 30 29 30 29 29 28 27 27 26 26 25 25 25 25 24 24 25 25 25 25 25 25 25 25 26 26 26 26 26 27 27 26 27 27 27 28
42 42 40 37 37 35 35 35 34 34 34 32 31 30 30 30 30 29 29 28 28 27 27 26 26 26 25 25 25 25 25 25 26 26 26 26 26 27 27 27 27 28 28 28 27 27 27 28 28
43 42 39 38 38 37 37 37 36 35 34 33 32 31 31 31 30 30 29 29 29 29 28 27 27 27 27 26 26 26 26 26 26 26 27 27 27 28 28 28 28 28 28 28 28 28 28 29 29
43 41 40 40 39 39 38 38 37 37 36 34 33 32 32 31 31 30 30 30 30 30 29 29 28 28 28 28 28 28 28 28 27 27 27 27 27 27 28 28 29 29 29 29 29 29 30 30 30
43 41 41 40 40 40 40 40 39 37 36 36 35 33 33 32 31 31 30 30 30 30 30 30 29 29 29 29 29 29 29 29 28 28 27 27 28 28 28 29 29 29 29 30 30 30 30 31 31
44 42 42 41 41 41 41 41 40 37 37 37 36 35 34 33 32 32 31 30 30 30 30 30 30 30 30 30 30 29 29 29 28 28 28 28 28 29 29 29 30 30 30 31 31 31 32 32 32
43 43 43 42 42 42 42 42 40 37 38 38 37 35 34 33 33 32 32 31 31 31 31 31 31 31 30 30 30 29 29 29 29 29 30 29 30 30 31 31 31 31 31 32 33 33 33 33 34
45 44 44 43 42 42 43 43 40 38 39 38 37 36 35 34 34 33 32 32 32 32 32 31 31 31 30 30 30 30 30 30 31 31 31 31 31 32 32 32 32 33 33 34 34 34 34 35 35
47 47 45 43 43 42 44 42 40 40 40 39 38 37 35 35 34 34 33 33 33 33 32 32 32 31 31 31 30 31 31 31 31 31 32 32 32 33 33 33 33 34 35 35 35 35 35 36 37
48 48 46 44 44 43 44 42 40 41 41 40 39 38 36 35 35 34 34 34 34 33 33 33 32 32 32 31 31 31 32 32 32 32 33 33 33 33 34 34 34 35 36 36 37 37 37 38 39
46 46 45 44 44 44 45 43 42 42 42 41 40 39 38 36 35 35 35 34 34 34 33 33 33 32 32 32 32 32 32 32 33 33 34 34 34 34 34 35 35 36 37 37 38 38 39 40 40
45 45 45 44 45 46 46 45 44 43 43 42 41 40 39 37 37 37 36 35 35 34 34 34 33 33 33 32 32 32 33 33 33 34 34 34 34 35 35 35 36 37 37 38 39 39 40 41 42
47 46 46 46 46 47 47 47 45 44 43 42 41 41 40 39 38 38 37 36 35 35 35 35 34 34 33 32 33 33 33 33 33 34 34 35 35 35 35 36 37 38 38 39 40 41 41 42 43
48 46 45 45 46 47 48 48 46 45 44 44 42 41 41 39 38 38 38 37 36 36 35 35 35 34 34 34 33 34 34 34 34 34 34 35 35 36 36 37 37 38 39 40 41 42 43 43 44
47 45 45 45 46 47 48 48 45 43 44 43 42 41 40 39 38 38 37 37 36 36 36 36 36 35 35 35 35 34 34 34 34 34 34 35 36 36 37 37 38 39 40 41 42 43 44 45 45
47 45 45 45 46 48 48 49 47 44 43 42 41 41 40 39 38 38 37 37 37 36 36 36 36 36 36 36 36 35 35 35 35 35 35 36 36 37 38 38 39 41 42 43 44 45 46 46 47
46 46 45 46 46 49 47 49 48 44 41 40 40 40 40 39 38 38 38 37 37 36 36 36 36 36 36 36 37 36 36 36 36 36 36 36 37 38 39 40 41 42 43 44 45 46 47 48 49
47 46 46 47 48 49 46 48 48 43 41 40 39 39 39 39 39 38 38 37 37 36 36 37 37 37 37 37 37 37 37 37 37 37 38 38 39 40 41 42 43 44 45 45 46 47 48 49 50
47 46 46 47 48 47 46 47 46 43 41 39 39 39 39 39 39 38 37 37 37 37 37 37 37 37 38 38 38 38 39 39 39 39 39 40 41 42 43 44 45 45 46 46 47 48 48 50 51
46 46 45 45 47 47 47 47 45 43 41 40 39 39 39 39 38 38 37 37 37 37 37 37 37 38 38 39 39 40 40 40 40 40 41 42 42 43 44 45 46 46 47 47 48 48 49 50 51
44 45 44 45 46 47 47 46 44 41 40 40 39 38 38 39 38 38 38 37 37 37 37 37 37 38 38 39 40 40 41 41 41 41 42 42 43 44 45 46 46 47 47 48 48 49 50 51 52
42 44 45 45 46 46 46 45 42 40 39 38 38 37 37 38 38 38 38 37 37 37 37 37 37 38 38 38 39 39 40 41 42 41 41 42 43 44 44 45 46 47 47 48 49 50 51 51 52
41 41 42 44 45 45 45 43 40 39 38 37 37 37 37 37 37 37 36 36 37 37 36 36 37 37 38 38 39 39 40 40 41 41 42 42 43 43 44 45 46 47 48 49 50 50 51 51 52
Wind_Direction
237 237 237 237 237 237 237 237 237 236 237 237 238 239 242 244 243 243 243 244 244 244 245 246 247 247 248 250 252 253 252 253 254 256 258 261 264 266 267 269 270 270 270 271 273 274 274 275 276
237 237 237 237 237 237 236 236 236 236 237 237 237 239 241 243 242 242 241 242 244 244 245 246 247 248 249 250 252 253 253 253 254 256 258 260 262 264 266 267 268 268 269 270 271 272 273 274 275
236 237 237 237 237 236 236 235 235 236 237 237 237 238 240 241 241 241 241 241 243 244 245 247 248 249 249 250 251 252 252 253 254 255 258 260 262 263 264 265 266 267 269 271 272 272 274 275 275
236 236 237 237 237 236 236 235 235 236 238 238 238 238 238 240 240 241 241 242 244 245 246 247 249 250 251 251 252 252 252 252 253 255 258 260 262 263 264 265 266 267 269 271 272 273 274 275 276
235 236 236 236 236 236 236 235 236 236 237 238 238 238 238 239 240 241 242 243 244 246 247 248 250 251 251 252 252 252 253 253 255 256 258 260 262 263 264 265 266 268 270 271 273 274 275 276 276
235 236 236 236 235 235 235 235 236 236 237 237 237 237 238 239 240 240 242 244 245 247 248 249 250 251 252 252 253 254 254 255 256 258 259 261 262 263 265 266 268 269 271 272 274 275 276 276 277
236 235 235 235 234 234 234 235 235 235 236 236 236 237 238 238 239 240 242 244 245 247 248 249 251 252 253 254 255 255 256 257 258 259 260 261 262 264 265 267 268 270 271 273 274 274 275 276 277
235 235 234 234 234 234 235 236 236 236 236 236 235 237 238 239 239 240 242 244 245 247 248 249 251 252 254 255 256 256 256 257 258 260 261 262 263 264 266 267 268 270 271 273 274 274 276 277 277
235 235 234 233 234 234 235 237 236 237 237 236 235 236 238 239 239 240 241 243 245 246 248 250 251 253 254 255 256 257 257 258 260 261 262 262 263 265 266 267 268 270 271 272 274 275 276 278 278
234 235 234 234 234 234 235 236 236 237 237 237 236 236 238 239 240 240 241 243 244 246 248 249 251 253 254 255 256 257 259 260 261 262 263 264 264 265 266 268 269 270 271 272 274 275 277 278 279
235 235 234 234 234 234 235 236 236 236 236 237 236 237 238 239 240 240 241 243 244 246 248 249 251 252 254 255 256 258 260 261 262 263 264 264 265 266 267 268 268 270 271 272 274 276 277 279 280
235 234 234 234 234 234 234 235 235 236 237 237 237 237 238 239 240 241 241 243 244 246 248 249 251 252 254 255 257 258 260 261 262 263 263 264 265 267 268 269 270 270 271 273 275 276 278 279 280
234 233 234 233 234 234 234 234 235 235 237 238 238 238 238 238 240 241 243 244 245 246 248 249 251 253 254 256 257 258 259 259 261 262 263 264 266 267 269 270 271 271 272 274 275 277 279 279 280
234 233 234 234 234 234 234 234 234 234 236 237 238 238 238 239 240 241 243 244 246 247 248 249 251 252 254 255 255 257 258 259 260 262 264 265 267 268 269 270 271 271 273 275 276 278 279 280 281
233 233 233 233 234 234 234 234 234 234 236 237 238 238 239 240 241 242 242 244 245 247 248 248 250 251 253 254 256 257 258 260 261 264 266 267 268 269 269 270 270 271 273 275 277 278 279 280 282
233 233 233 233 235 234 235 234 234 234 235 237 238 238 238 239 241 242 243 244 245 247 248 249 250 251 252 254 256 257 259 260 263 265 266 268 269 269 269 270 271 273 274 276 278 279 280 281 282
233 233 233 233 235 235 236 234 233 235 236 237 238 238 238 239 241 243 243 244 245 247 248 249 250 251 252 254 256 258 260 262 263 265 266 267 268 269 270 271 272 274 276 277 278 279 280 281 282
235 235 235 235 235 236 236 235 234 235 236 237 238 239 239 240 242 243 244 245 246 247 248 249 250 251 253 255 258 259 261 262 263 265 267 268 268 270 271 272 274 275 276 278 279 281 281 282 282
235 235 235 235 235 236 237 236 235 236 236 237 238 239 240 241 242 243 244 245 246 247 248 249 250 252 254 256 258 260 261 262 264 265 267 268 269 270 273 274 275 276 277 279 280 282 283 283 284
234 234 234 235 235 237 237 236 235 236 237 238 238 239 240 241 242 244 245 245 246 248 249 249 250 252 254 255 257 259 261 263 264 266 267 268 269 272 274 275 275 276 278 280 281 283 284 285 286
233 234 235 236 236 237 238 236 235 236 237 237 238 239 240 241 242 243 244 245 246 248 249 250 250 252 254 256 257 259 261 263 265 266 268 269 271 273 275 275 276 277 279 281 282 284 284 285 286
233 234 235 236 237 237 238 238 234 235 236 237 238 239 240 241 241 242 244 245 246 247 248 249 250 252 254 255 257 259 261 263 265 267 268 270 272 274 275 276 277 279 281 282 283 284 285 286 287
233 233 235 236 237 237 237 239 234 234 235 237 238 239 239 240 241 242 243 245 245 247 248 249 250 251 253 254 256 258 260 262 265 267 269 271 273 274 275 277 279 280 282 283 284 285 286 287 288
231 232 234 236 237 237 236 239 237 235 235 236 238 239 239 240 240 241 242 244 245 247 248 249 250 251 252 254 256 258 260 263 265 267 269 271 273 274 275 278 280 282 283 284 285 286 287 287 288
228 230 233 235 235 237 237 239 239 236 235 235 237 238 238 239 240 241 242 244 245 247 248 249 250 251 253 255 256 258 261 263 265 267 269 271 273 274 276 278 281 283 284 285 286 287 288 288 289
229 230 232 235 237 238 238 239 238 237 236 236 236 237 238 238 240 241 242 244 245 247 249 250 251 252 254 255 257 259 261 263 265 267 269 271 273 275 277 279 282 284 284 285 287 287 288 289 290
227 228 232 236 238 239 239 239 238 238 238 237 237 237 238 239 240 242 243 244 246 247 249 251 253 255 255 256 258 259 261 263 265 267 269 271 274 277 278 280 282 284 285 286 287 288 289 290 290
228 229 230 233 236 238 240 240 239 239 239 239 238 238 238 239 240 242 243 245 246 248 250 251 254 256 256 257 258 259 261 263 265 267 270 272 275 277 279 281 283 284 285 286 287 288 289 290 291
228 228 230 233 236 237 239 240 240 240 240 239 238 238 239 240 240 241 243 244 246 247 250 252 254 255 256 257 258 260 262 264 265 267 270 273 276 279 280 282 283 284 286 287 288 289 289 290 291
228 229 230 231 233 236 238 239 239 240 240 239 239 239 239 239 241 242 243 244 245 247 250 253 253 255 256 257 258 260 262 264 266 267 270 273 276 279 281 283 283 284 286 287 288 289 290 291 292